Hourly Data Report for October 20, 2015

All times are specified in Local Standard Time (LST). Add 1 hour to adjust for Daylight Saving Time where and when it is observed.

PETAWAWA AWOS 2
ONTARIO

45°57'00.000" N
77°19'00.000" W
130.10 m
6106396
71625
YWA

Download Data

Hourly Data (October 2015)
Hourly Data Report for October 20, 2015
Temp Definition
°C
Dew Point Temp Definition
°C
Rel Hum Definition
%
Wind Dir Definition
10's deg

Wind Spd Definition
km/h
Visibility Definition
km
Stn Press Definition
kPa
Hmdx Definition


Wind Chill Definition


Weather Definition


TIME
00:00 6.6 4.7 88   0 14.5 99.48     LegendNANA
01:00 7.4 5.6 88 14 6 14.5 99.51     LegendNANA
02:00 5.6 4.1 90   0 14.5 99.52     LegendNANA
03:00 3.4 2.7 95 19 4 14.5 99.53     LegendNANA
04:00 2.0 1.7 98   0 14.5 99.59     LegendNANA
05:00 1.2 0.5 95 23 4 14.5 99.68     LegendNANA
06:00 0.3 -0.1 97   0 14.5 99.76     LegendNANA
07:00 0.2 -0.7 94 26 4 14.5 99.84     LegendNANA
08:00 4.4 3.8 96   0 14.5 99.94     LegendNANA
09:00 10.1 6.9 80 31 6 14.5 100.02     LegendNANA
10:00 11.6 6.5 71 31 11 14.5 100.09     LegendNANA
11:00 12.3 5.9 65 36 20 14.5 100.12     LegendNANA
12:00 12.4 5.0 61 33 15 14.5 100.20     LegendNANA
13:00 12.2 5.5 64 34 20 14.5 100.23     LegendNANA
14:00 11.7 5.5 66 36 17 14.5 100.26     LegendNANA
15:00 10.7 4.5 66 34 17 14.5 100.32     LegendNANA
16:00 10.7 3.2 60 33 13 14.5 100.35     LegendNANA
17:00 9.3 2.0 60 30 7 14.5 100.42     LegendNANA
18:00 8.2 0.1 57 35 11 14.5 100.56     LegendNANA
19:00 5.8 -4.8 46 34 13 14.5 100.63     LegendNANA
20:00 4.8 -5.5 47 34 11 14.5 100.72     LegendNANA
21:00 3.4 -5.0 54 28 4 14.5 100.79     LegendNANA
22:00 -0.8 -4.2 78 27 4 14.5 100.84   -2 LegendNANA
23:00 -0.4 -4.6 73 27 9 14.5 100.91   -4 LegendNANA

Notes on Data Quality.

Legend

  • E = Estimated
  • M = Missing
  • NA = Not Available
  • ‡ = Partner data that is not subject to review by the National Climate Archives
Date modified: